Theta_e
325 325 325 325 326 326 325 325 326 326 326 326 326 326 325 324 323 323 322 321 321 320 318 318 317 317 318 314 310 309 309 308 308 308 308 307 306 305 304 303 303 303 303 303 304 304 304 304 304 304 304 304 303 303 303 303 302 302 302 302 302 303 302 302 303 303 303 302 302 302 301 301 301 301
325 325 324 324 325 326 326 326 326 326 326 326 326 326 325 324 323 322 321 320 320 319 318 317 316 316 316 312 309 309 308 307 308 308 308 307 306 305 303 303 303 303 304 305 305 306 306 306 306 305 305 305 304 304 303 303 303 303 303 303 303 303 303 303 303 303 303 302 302 302 302 302 302 302
325 325 324 325 325 325 325 325 326 326 325 324 324 324 323 323 322 322 321 320 319 318 317 316 315 314 314 311 309 308 307 307 307 308 308 306 305 304 303 304 304 305 306 307 307 307 307 307 307 307 306 306 305 305 304 304 303 303 303 303 303 303 303 303 303 303 303 302 302 302 302 302 302 302
325 325 325 325 325 324 325 325 325 324 323 323 322 322 322 322 322 322 321 320 319 318 317 315 313 313 312 311 310 308 306 307 308 309 308 307 305 304 304 304 306 307 308 308 309 309 309 309 309 308 308 307 306 305 305 305 304 303 303 303 303 303 303 303 303 303 303 302 302 302 302 302 302 301
326 325 324 324 323 324 325 325 324 322 321 321 321 321 322 322 321 321 321 320 318 316 315 314 313 312 311 311 311 308 307 309 310 309 308 307 305 304 304 305 306 308 309 310 310 310 310 309 310 310 309 309 308 307 306 306 306 305 304 303 303 303 303 303 303 303 303 303 303 302 302 302 301 301
327 325 324 324 324 324 324 323 323 322 320 319 319 320 321 321 320 320 320 320 318 316 314 313 312 312 311 312 311 308 308 310 311 310 309 307 306 305 306 306 307 309 310 310 309 309 309 309 310 311 311 310 310 309 308 308 308 307 306 305 305 304 303 302 303 302 302 302 302 302 302 301 301 301
327 326 325 325 326 325 323 323 323 321 320 319 319 318 318 319 319 320 320 319 316 315 314 312 312 311 310 311 311 309 310 310 311 311 310 307 306 306 307 307 308 309 310 309 308 308 308 309 310 311 311 311 311 311 310 310 309 309 309 308 307 306 304 302 302 302 302 302 302 302 301 301 300 300
327 326 326 326 326 324 322 322 322 320 320 320 319 319 318 318 318 318 318 317 315 315 313 311 312 311 310 311 311 311 311 311 310 311 311 309 307 307 307 308 309 309 310 309 309 309 309 310 311 311 312 312 312 312 311 311 311 311 310 310 309 308 305 303 302 302 302 302 301 301 301 300 300 299
327 327 326 327 325 323 322 322 320 320 320 319 319 319 319 318 318 318 318 317 316 315 314 311 311 312 311 311 312 312 312 312 311 311 311 311 310 309 309 310 311 311 311 311 311 311 311 310 310 311 311 312 312 312 312 312 312 312 311 311 310 309 307 304 302 302 301 301 301 300 300 299 299 299
327 326 326 326 324 322 322 321 321 320 320 320 319 319 320 320 319 318 318 318 317 317 316 313 313 313 313 312 313 312 312 312 312 311 311 311 311 311 311 311 311 312 312 312 311 311 311 311 310 311 311 311 312 312 312 313 312 312 312 312 311 311 309 305 303 301 301 301 300 300 299 299 299 299
324 324 325 325 323 322 322 322 321 321 320 321 321 321 321 321 320 319 318 318 318 318 318 316 315 315 314 314 314 313 313 312 313 313 312 311 311 312 312 312 312 312 312 312 311 311 312 312 312 311 311 311 312 312 312 312 312 312 312 312 312 312 310 307 303 301 301 300 300 300 299 299 299 299
323 324 323 323 323 323 323 322 322 322 322 322 322 322 321 320 320 320 319 319 319 319 319 319 318 317 316 315 314 314 314 313 313 313 313 313 312 312 312 312 312 312 312 312 312 313 313 314 314 313 312 311 311 312 312 312 312 312 312 312 311 312 311 308 304 301 300 300 300 299 299 299 299 299
323 323 322 323 322 323 323 323 322 323 323 322 321 320 321 320 320 320 319 320 320 319 319 319 319 319 318 317 316 316 316 315 314 314 314 314 314 313 313 313 313 313 313 313 314 314 315 315 315 315 313 312 312 311 311 311 311 311 311 311 311 311 311 308 304 301 300 300 300 299 299 299 299 298
322 322 322 322 322 322 323 322 323 323 322 321 321 321 320 320 319 319 319 320 320 320 320 319 319 319 319 318 318 317 317 316 316 315 315 314 314 315 314 314 314 314 314 314 314 314 315 315 315 315 314 314 313 312 312 312 312 312 312 312 311 311 310 307 303 301 300 300 299 299 299 298 298 297
320 321 321 321 320 320 320 319 320 319 318 318 318 320 321 321 319 319 319 319 320 320 320 319 319 319 318 319 318 318 318 317 317 316 316 315 315 315 315 315 315 315 315 315 315 315 315 315 315 315 315 315 314 313 313 313 313 313 312 312 311 311 310 306 302 300 300 299 299 298 298 298 297 297
319 319 319 319 318 317 315 314 313 313 313 313 314 315 317 318 318 317 316 317 318 319 319 319 319 320 319 319 318 318 318 317 317 317 316 316 316 316 316 315 315 316 316 316 315 315 315 315 315 315 315 315 314 313 313 313 313 313 312 312 311 311 309 305 301 300 299 298 298 298 298 297 297 296
318 318 318 319 319 319 318 316 316 316 316 316 316 316 316 316 316 315 315 315 316 316 317 317 317 319 319 319 319 318 318 318 317 317 317 316 317 316 316 316 316 316 316 316 316 315 315 315 315 316 315 314 314 313 313 312 312 312 312 312 311 310 308 304 301 299 298 298 298 297 297 297 296 296
318 318 318 320 320 321 321 319 320 320 320 319 320 320 319 318 318 317 317 317 316 316 317 317 317 317 318 319 319 319 319 319 318 318 318 317 317 317 316 316 316 316 316 316 316 315 315 315 315 315 315 314 313 313 313 312 312 312 312 311 311 310 308 303 300 299 298 298 297 297 296 296 296 296
319 318 318 320 320 320 320 321 321 320 319 320 320 319 317 317 317 317 317 317 317 317 317 317 317 317 318 319 319 319 319 319 318 318 318 318 317 317 317 317 317 317 317 317 316 316 315 315 314 314 314 313 313 313 313 312 311 311 311 310 310 308 306 303 301 300 299 297 296 296 296 296 296 296
319 319 318 319 320 320 319 319 319 319 319 319 318 317 317 317 317 317 317 317 318 318 317 317 316 317 317 318 319 319 318 318 318 317 317 317 317 318 318 317 317 317 317 317 317 316 316 316 314 314 314 313 313 312 312 312 310 310 309 309 308 306 304 302 301 300 298 297 296 296 296 296 297 297
319 318 318 318 319 319 317 316 317 318 319 319 318 318 319 319 318 317 317 317 318 318 317 317 316 316 316 318 319 319 318 317 317 316 316 316 316 317 318 317 317 317 317 317 317 316 316 315 315 314 314 313 312 312 312 310 309 308 308 308 307 305 303 302 301 299 298 297 297 297 297 297 297 297
320 318 318 319 319 318 317 317 316 317 318 318 317 318 318 318 317 316 315 315 316 315 315 316 316 316 317 317 318 317 316 315 315 315 315 315 315 316 316 316 317 317 317 316 316 315 315 314 314 314 314 313 312 312 311 309 307 307 307 306 305 304 303 301 300 299 298 298 298 298 298 298 298 297
319 317 317 318 318 317 317 316 316 316 316 315 315 314 314 314 315 315 315 315 314 314 315 315 315 315 316 316 315 314 312 311 312 312 313 314 315 315 315 316 316 317 316 316 315 315 314 314 314 313 313 312 311 311 310 309 308 307 305 304 303 303 302 300 299 299 299 299 299 299 298 298 297 297
317 317 317 317 316 316 316 315 314 313 313 313 312 311 311 311 312 313 315 315 315 314 314 314 314 314 314 314 313 311 309 309 309 309 311 313 315 315 315 316 316 316 316 316 315 315 314 314 313 313 312 311 309 309 308 308 307 305 304 303 303 302 300 299 299 299 299 299 298 298 298 297 297 296
316 316 315 314 314 314 314 314 313 312 312 312 311 311 310 310 310 311 311 313 313 313 314 314 314 314 313 313 313 311 310 310 309 309 311 313 314 315 315 316 316 315 315 315 315 314 313 313 312 311 311 310 308 306 305 304 304 303 302 302 302 301 299 299 299 300 299 299 298 298 298 297 297 296
313 313 312 311 311 312 312 312 312 311 311 311 310 310 309 308 308 308 308 309 310 311 313 314 314 314 313 314 314 313 312 312 312 311 311 310 311 313 314 315 315 315 314 314 314 314 312 310 309 309 309 308 307 304 303 302 302 302 301 301 301 300 299 299 299 299 299 298 298 298 297 297 296 296
310 310 310 310 309 309 309 309 309 308 308 308 307 306 305 304 303 303 303 305 306 307 309 311 312 313 314 314 314 313 313 313 313 312 311 310 310 311 312 313 313 313 313 313 312 312 310 308 306 306 306 305 304 304 303 303 302 300 300 300 300 299 299 299 299 299 298 298 298 298 297 297 296 295
307 307 307 306 305 304 303 303 303 303 302 302 301 301 301 301 301 301 300 301 301 302 304 305 307 308 310 311 312 313 312 312 312 311 311 311 310 310 310 311 312 312 312 311 309 308 307 306 305 304 303 303 303 303 303 302 300 298 299 300 300 299 299 299 299 298 298 298 297 297 297 296 295 295
303 302 302 301 300 299 299 299 299 299 300 301 302 303 303 304 304 304 304 304 304 305 306 307 308 308 308 309 310 311 311 311 311 310 310 310 310 309 308 309 309 310 310 309 307 305 304 304 304 303 302 302 302 301 300 298 296 296 298 299 299 299 299 299 298 298 298 297 297 296 296 295 295 295
298 298 298 297 298 299 300 301 301 301 303 304 305 305 305 305 305 306 306 306 307 307 307 307 308 308 309 309 309 309 309 310 309 309 308 307 307 306 307 307 307 307 307 306 305 304 303 301 301 300 298 298 298 297 296 295 296 297 297 298 298 298 298 298 298 298 297 297 296 296 295 295 295 295
297 297 296 297 300 302 303 303 303 303 304 304 304 303 304 304 304 305 304 305 306 307 306 306 307 307 307 307 307 307 308 309 308 307 306 305 304 304 304 304 304 303 303 302 301 300 299 298 297 297 296 295 295 296 296 297 297 298 297 297 297 298 298 298 298 297 297 296 296 296 295 295 294 294
296 297 297 299 302 303 303 303 303 303 303 302 302 302 302 303 303 303 304 304 305 305 305 305 305 305 306 306 306 306 307 307 307 305 304 304 303 303 302 301 301 300 300 299 298 296 295 295 295 295 295 295 295 296 296 296 296 296 296 296 297 297 297 297 297 297 296 296 296 296 295 295 294 294
299 300 301 302 303 303 302 302 302 302 302 302 301 301 301 301 302 302 303 303 303 303 303 303 302 302 303 304 305 305 305 306 305 304 303 303 302 301 300 300 299 299 299 299 298 297 297 296 296 297 297 297 296 296 296 296 296 296 296 296 297 297 297 297 297 296 296 296 296 296 295 294 294 294
301 302 302 302 302 302 302 302 301 301 301 301 301 301 301 301 301 301 301 301 301 301 301 302 302 301 301 302 303 304 304 304 304 303 302 301 301 300 299 298 298 298 298 298 298 298 298 298 298 298 298 298 297 297 296 296 296 297 296 297 297 297 297 296 296 296 296 296 295 295 295 294 294 294
302 301 301 302 302 301 301 301 301 301 301 301 301 300 300 301 301 300 300 300 300 300 300 300 300 301 301 301 302 303 303 302 302 302 301 300 299 299 298 298 298 298 298 298 298 298 298 297 297 297 296 296 296 296 296 296 297 297 297 297 296 296 296 296 296 296 295 295 295 295 295 294 294 294
301 301 301 301 301 301 301 301 301 300 300 300 300 300 300 300 300 300 300 300 300 300 300 299 300 300 300 301 301 301 300 300 300 300 299 299 299 299 299 299 298 298 298 298 297 297 296 296 295 295 295 295 295 295 296 297 297 297 297 296 296 296 296 295 295 295 295 295 294 294 294 294 294 294
300 300 300 301 301 301 301 301 300 300 300 300 299 300 300 300 300 299 299 299 299 300 299 299 299 300 299 299 299 299 299 299 299 299 299 298 298 298 298 298 297 297 296 296 295 295 295 295 295 295 295 295 295 295 295 296 297 297 296 296 295 295 295 295 295 295 294 294 294 294 294 294 294 293
300 299 299 299 299 299 299 298 298 299 299 298 298 299 299 298 298 298 298 299 299 299 299 299 298 298 298 297 297 298 298 298 298 298 298 297 297 297 296 296 295 295 294 294 294 294 294 294 295 295 294 295 295 295 295 295 296 296 295 295 295 295 295 294 294 294 294 294 293 293 294 294 293 293
299 298 298 298 298 297 296 296 296 297 297 297 297 297 297 297 297 297 298 298 298 298 298 298 298 298 297 297 297 297 297 297 296 296 296 296 295 295 295 294 293 293 293 294 294 293 294 294 294 294 294 294 294 294 294 294 294 294 294 294 294 295 294 294 294 294 294 293 293 293 293 293 293 293
298 298 297 297 296 295 295 295 295 295 296 297 297 297 297 296 296 296 297 297 298 298 298 298 297 297 297 296 296 296 296 295 295 295 295 295 294 294 293 293 292 292 292 293 293 293 293 293 294 294 294 293 293 293 294 294 294 294 294 294 294 294 295 294 294 294 294 293 293 292 292 292 292 292
297 297 296 296 295 295 295 295 295 296 296 297 297 297 297 296 296 296 297 297 297 297 297 297 297 296 296 296 296 295 295 295 295 294 294 294 293 293 292 292 292 292 292 292 292 292 292 293 293 293 293 293 293 293 293 294 294 294 294 294 294 294 294 294 294 294 294 293 293 292 292 292 292 292
296 296 295 295 295 295 294 294 295 296 296 296 296 297 297 297 297 297 297 297 297 296 296 296 296 296 296 295 295 295 295 294 294 293 292 292 292 292 293 293 292 292 292 292 292 292 292 292 292 292 292 293 293 293 293 293 294 294 294 294 294 294 294 294 294 294 294 294 293 293 292 292 292 292
296 295 294 294 294 294 294 294 294 295 296 296 296 297 297 297 297 296 296 296 296 296 296 296 295 295 295 294 294 293 293 293 293 292 292 292 292 292 292 292 292 292 292 292 292 292 292 292 292 292 292 293 293 293 293 293 293 293 294 294 294 294 294 294 294 294 294 294 293 293 293 293 293 293
295 295 294 294 294 294 294 293 293 293 294 295 296 296 296 296 296 296 295 295 295 295 295 295 294 294 294 293 293 293 292 292 292 292 292 292 292 292 292 292 292 292 292 292 292 292 292 291 291 292 292 293 293 293 293 293 293 293 293 293 294 294 294 294 294 294 294 294 293 293 293 293 293 293
295 294 294 294 294 294 293 293 293 292 293 294 295 295 295 295 295 295 295 295 295 294 294 293 293 292 292 292 292 292 292 292 292 292 292 292 292 292 292 292 292 292 291 291 291 291 291 291 292 292 292 292 292 293 293 293 293 293 293 293 294 294 294 294 294 294 294 294 294 294 294 294 293 293
Wind_Speed
6 7 9 9 10 10 11 11 11 12 14 14 14 13 14 17 17 17 17 15 16 17 13 10 9 8 7 11 11 9 8 6 6 7 8 8 9 11 11 11 12 12 12 12 11 10 9 8 7 7 6 5 5 5 5 5 5 5 4 4 4 4 4 4 3 4 4 5 6 6 7 8 9 9
7 8 9 9 9 10 11 12 12 13 12 12 13 13 13 14 15 17 18 17 16 15 11 9 10 8 8 11 10 9 8 6 7 7 8 9 9 10 12 12 12 11 11 10 9 8 8 7 6 5 5 5 5 4 4 5 4 4 4 3 3 3 2 3 3 4 5 6 7 8 9 10 10 11
8 9 10 9 10 10 11 13 14 13 11 11 10 10 10 12 15 16 17 17 15 13 13 13 11 7 8 11 10 9 8 7 7 8 8 9 9 10 12 12 11 10 9 8 8 7 6 5 5 4 4 3 3 3 3 4 3 3 3 3 2 2 2 3 4 5 6 7 8 10 11 12 12 13
8 9 10 10 10 11 13 14 14 13 11 9 8 9 10 12 16 17 16 16 14 12 14 15 12 7 8 11 10 8 8 7 7 9 8 9 10 11 12 11 10 9 9 7 6 6 5 4 3 2 2 1 1 2 2 2 2 2 2 2 1 2 3 4 5 6 8 9 10 11 13 13 14 15
8 9 10 11 10 11 14 15 15 12 9 8 8 9 11 11 13 16 16 16 15 13 13 12 11 9 11 13 11 7 8 8 7 9 10 10 11 11 11 11 11 10 9 8 6 5 3 2 2 2 1 1 1 0 1 1 2 2 2 3 3 3 4 6 7 8 9 11 12 13 14 15 16 16
8 9 10 13 12 11 13 15 14 12 10 10 9 8 10 9 11 14 16 16 16 15 13 11 11 11 13 14 13 8 7 7 6 8 11 11 12 12 12 11 11 11 10 8 6 4 4 4 5 4 4 3 2 2 2 3 3 4 4 5 5 6 6 7 8 10 11 12 14 15 15 16 17 18
8 9 11 13 13 12 14 13 11 13 12 10 9 8 8 8 8 13 17 15 13 13 13 13 13 13 12 13 13 10 7 7 7 8 9 12 13 13 13 13 12 12 11 9 6 6 7 7 7 6 5 5 5 5 5 5 6 6 7 8 8 9 9 10 10 12 13 15 16 16 17 18 18 19
8 10 12 12 12 13 14 11 10 12 9 7 9 8 8 9 8 10 13 10 6 7 11 14 14 13 12 14 14 13 10 9 9 9 9 10 12 14 14 14 13 12 12 10 9 10 11 10 10 9 8 8 7 7 8 8 9 9 10 10 11 12 12 12 13 14 15 16 17 18 19 19 20 21
9 11 12 12 13 14 12 10 10 9 5 6 10 8 7 9 8 8 10 6 4 7 10 11 12 13 11 12 14 16 14 10 9 11 13 12 11 12 14 14 13 13 12 13 14 15 14 13 12 12 11 10 10 10 10 10 11 11 11 12 13 14 14 14 15 16 17 18 19 20 20 21 21 22
8 10 10 12 15 14 11 10 10 8 4 6 9 7 5 7 7 7 9 9 7 8 9 7 8 12 11 9 11 15 17 14 9 10 14 16 15 12 11 13 17 18 17 17 18 18 18 17 16 15 14 14 13 12 12 13 13 12 13 13 14 15 16 16 17 18 19 20 21 21 22 22 23 23
9 9 9 12 13 12 11 11 10 8 7 7 7 6 6 5 4 5 8 9 7 6 7 7 8 11 13 11 10 12 16 16 12 9 12 16 19 17 13 13 18 20 21 21 21 21 21 19 18 18 18 17 16 15 14 15 15 15 15 14 14 15 17 18 18 19 20 22 22 23 23 23 24 24
9 9 8 10 11 11 10 11 11 9 9 8 6 5 5 4 2 3 4 5 6 6 7 9 10 11 13 14 13 11 14 17 15 13 13 15 17 20 19 18 20 21 22 23 23 22 21 19 18 19 21 21 19 18 18 18 18 18 17 15 14 15 17 18 19 20 22 23 24 24 24 24 25 25
8 7 8 8 9 9 9 9 10 10 8 8 7 6 7 6 4 5 5 5 6 7 8 10 10 11 13 15 14 13 14 17 17 17 17 16 16 18 20 21 22 23 23 24 25 24 22 20 20 20 22 23 22 20 20 20 20 18 17 15 15 16 18 19 20 21 23 24 25 25 25 25 26 26
8 6 8 8 7 8 8 8 9 9 8 9 9 8 9 9 8 8 8 7 7 7 9 10 9 11 13 14 15 15 15 15 16 17 18 18 18 18 19 20 23 24 25 27 28 26 23 22 23 23 21 21 20 20 20 19 19 17 17 16 17 18 19 20 21 22 24 25 26 26 26 26 27 27
6 5 5 6 8 10 10 10 11 10 9 10 11 10 10 10 9 9 9 9 9 7 8 9 9 11 12 12 14 17 17 18 19 20 19 18 18 19 19 19 21 22 24 26 27 27 26 26 27 28 27 24 23 22 21 19 18 18 18 18 19 20 20 21 22 23 24 25 26 26 27 27 28 28
3 3 4 6 7 7 8 8 9 9 8 9 9 10 11 12 12 11 10 11 11 10 10 10 10 11 11 11 12 14 16 19 22 22 21 20 20 21 21 21 22 21 21 23 26 28 28 26 26 28 30 30 27 24 21 20 20 21 21 21 20 20 21 22 23 23 24 25 26 27 28 28 29 30
3 4 5 7 6 4 4 5 4 5 7 8 8 9 11 12 13 14 13 13 14 14 14 15 15 13 13 13 14 14 15 16 18 19 20 21 23 24 25 26 27 26 24 23 25 27 27 27 27 28 29 29 27 23 21 21 22 23 24 23 23 23 23 23 23 24 24 25 26 27 28 29 30 31
8 9 9 9 10 10 8 6 5 6 8 9 9 9 9 11 13 14 15 15 16 17 17 18 19 18 16 17 18 18 17 16 17 18 19 21 22 24 25 25 26 27 28 27 26 25 26 28 28 26 26 26 25 24 23 23 23 22 23 24 25 25 25 24 23 24 25 25 27 28 29 30 31 31
10 13 13 11 10 11 10 8 8 10 11 12 11 12 13 14 15 16 17 18 19 20 20 20 21 21 20 20 21 21 21 20 21 22 22 22 23 24 25 26 27 28 29 29 28 27 27 28 26 24 25 25 24 25 25 24 22 21 21 23 25 25 24 24 23 24 25 26 27 28 29 30 30 29
12 13 15 15 12 10 9 8 8 10 11 12 13 14 16 15 16 17 18 18 20 20 20 21 22 23 22 21 22 22 23 23 24 25 25 25 26 26 27 28 29 30 30 30 30 30 31 31 29 28 30 29 25 26 26 23 20 20 21 24 25 24 23 23 23 24 25 25 26 27 28 28 27 26
13 11 12 14 13 12 13 12 12 11 11 13 15 16 17 17 17 18 19 19 20 21 22 21 21 22 22 22 22 23 24 25 25 26 27 27 27 27 28 30 31 31 30 29 28 28 29 29 28 30 32 29 25 26 26 22 17 17 20 23 24 23 24 24 23 23 24 25 25 25 26 26 25 24
12 11 10 9 10 11 13 15 15 16 16 16 17 16 17 17 16 17 18 18 18 19 19 19 19 20 21 21 22 23 23 23 23 24 26 26 26 27 28 30 30 28 28 28 25 25 26 25 24 27 30 29 28 28 27 23 18 17 20 23 23 24 25 24 22 23 23 23 23 23 24 24 25 25
10 9 8 9 11 13 14 15 16 17 17 16 14 13 14 13 12 13 14 14 13 14 15 16 17 19 19 20 21 21 21 20 19 20 22 22 23 25 27 28 26 25 27 28 25 25 26 26 25 26 28 30 31 30 29 28 26 23 22 21 22 23 24 22 22 22 22 20 20 21 22 23 25 25
7 7 7 8 9 10 10 10 11 12 12 13 12 12 12 11 11 11 12 13 13 14 15 15 16 17 18 19 20 21 21 20 20 21 22 21 22 22 24 25 24 24 25 26 26 26 26 26 27 27 27 28 27 25 25 25 23 20 19 20 22 22 22 22 21 20 18 16 16 18 20 22 23 23
8 8 8 8 8 8 9 10 11 12 12 13 13 13 14 14 14 14 14 15 15 16 16 16 16 18 19 19 22 25 26 25 24 22 21 21 21 22 23 24 24 24 25 27 28 29 29 29 29 26 25 25 22 17 15 13 13 14 16 19 20 19 20 20 18 16 15 15 16 17 19 21 21 20
10 10 9 11 12 12 13 14 15 15 15 15 15 16 18 19 19 19 18 18 17 17 18 18 19 20 19 19 21 23 24 25 26 25 23 22 21 20 21 22 24 26 27 27 29 31 30 29 26 24 24 23 20 17 15 12 13 14 14 15 17 17 17 15 11 11 15 17 19 19 20 20 19 17
11 12 12 13 15 15 16 16 17 17 18 19 19 20 21 21 21 20 20 19 19 18 17 18 20 21 21 21 22 22 22 22 24 25 24 23 24 24 23 23 23 25 27 28 30 30 28 24 21 21 22 21 19 19 19 17 18 17 14 13 15 13 11 9 9 13 17 18 20 21 21 19 16 14
13 14 15 15 16 16 17 18 18 19 19 19 19 18 17 17 18 18 18 17 17 17 17 17 18 18 19 21 24 25 25 25 25 24 23 23 27 29 27 24 23 23 25 28 27 25 23 21 20 19 18 16 16 18 18 17 17 17 15 14 13 11 10 12 15 17 18 19 20 20 19 16 13 13
14 14 14 14 14 14 14 14 13 13 12 11 12 12 12 13 13 14 14 13 13 14 15 15 16 18 18 19 21 23 25 26 26 26 25 25 27 27 23 20 21 21 23 26 24 19 18 20 21 19 17 17 19 19 18 17 16 16 15 15 15 14 14 16 18 18 19 19 17 16 15 14 13 15
13 12 11 10 8 8 7 8 9 10 10 10 11 11 11 12 14 14 14 13 12 13 13 12 12 15 17 17 18 18 20 20 19 19 19 18 16 15 15 16 18 20 21 22 21 19 17 17 18 17 16 17 19 18 17 17 16 15 14 14 14 12 11 15 18 19 19 17 15 14 14 13 14 15
10 10 9 6 6 8 9 10 11 11 10 10 10 10 10 11 12 12 11 10 10 12 12 9 9 11 13 15 15 15 15 14 12 11 11 9 8 10 12 14 15 14 14 15 15 15 15 14 15 15 15 15 16 15 15 15 16 16 14 13 11 10 11 15 18 19 17 15 15 15 15 15 14 14
8 8 7 8 9 9 9 9 9 7 6 7 8 9 10 10 10 10 10 11 11 12 13 13 14 14 14 12 11 11 11 11 11 10 9 9 9 9 10 10 10 8 8 10 10 10 9 9 9 10 11 12 12 12 14 14 14 14 13 10 7 8 11 14 14 14 13 14 15 16 17 17 15 13
11 11 11 11 10 8 7 7 6 6 7 8 8 9 10 11 12 13 14 15 16 16 17 18 19 18 16 13 11 10 10 10 11 11 11 10 9 9 9 10 9 8 7 8 8 8 8 8 8 9 10 11 10 10 11 10 9 8 7 6 6 9 12 12 10 10 12 15 16 16 17 17 14 13
12 12 12 11 8 6 6 7 7 8 9 9 9 9 9 10 14 17 17 18 19 19 19 19 18 18 17 16 15 14 13 11 11 12 12 11 10 10 10 9 8 8 7 8 9 12 12 12 12 12 11 11 9 7 7 7 7 5 3 4 6 10 11 11 11 12 14 16 16 16 17 16 12 13
11 11 12 10 7 4 3 4 5 5 6 7 8 9 8 8 13 18 19 18 19 19 17 17 17 17 16 14 14 13 12 12 11 11 11 10 9 9 9 9 10 11 12 14 15 15 11 9 10 10 10 9 8 6 4 5 7 7 6 5 6 8 9 11 13 14 16 16 16 16 16 15 13 14
10 9 9 7 6 5 2 2 4 4 5 4 6 8 7 6 10 15 18 18 17 17 16 17 17 15 13 10 9 8 8 9 10 10 10 11 11 11 12 12 12 12 13 12 11 9 6 6 7 9 9 9 9 7 4 3 6 9 9 8 7 8 10 12 14 14 15 14 14 14 15 14 14 15
7 5 4 5 6 6 6 6 6 6 6 6 5 6 5 5 7 10 12 14 15 14 15 17 14 10 8 8 6 5 6 6 7 8 9 10 10 11 11 9 9 8 7 5 6 6 6 6 8 10 10 9 8 8 6 3 4 9 10 9 8 9 10 12 13 13 13 12 12 13 13 14 15 16
8 6 5 4 5 7 8 9 8 8 8 7 5 4 5 6 8 8 9 12 12 12 13 15 13 9 8 7 6 5 6 6 6 7 8 9 10 10 10 9 9 8 4 0 1 4 6 5 5 7 8 8 7 9 8 5 5 7 9 10 10 10 10 9 10 11 11 13 13 13 12 13 15 17
10 9 7 6 7 8 9 9 8 6 6 5 4 5 6 8 10 9 9 9 9 8 11 14 13 10 9 9 8 8 8 9 9 9 10 11 11 10 9 8 7 6 4 4 4 6 7 7 6 7 7 8 9 11 12 11 11 10 8 9 11 11 10 8 9 10 12 13 14 13 13 13 14 16
10 9 8 9 11 12 14 14 13 11 9 9 7 6 6 9 11 10 8 7 5 5 9 11 10 9 9 9 8 7 7 8 9 10 11 11 9 8 7 7 5 4 3 4 5 6 7 8 8 9 9 10 10 10 10 11 11 8 5 5 9 10 8 8 10 11 12 13 13 12 11 11 12 14
10 9 9 11 13 14 15 16 14 11 9 9 8 6 8 10 11 9 7 6 5 5 7 8 7 7 7 7 6 6 8 9 9 9 9 8 7 8 9 9 8 6 6 7 7 8 9 9 10 11 11 9 8 7 7 7 8 7 6 7 9 9 8 8 9 9 11 13 13 11 8 9 13 13
10 10 11 12 13 13 14 15 14 12 10 8 7 7 9 9 8 7 6 5 5 6 7 7 6 5 6 6 6 7 8 7 7 8 8 6 8 10 10 10 9 9 9 8 8 10 11 11 10 9 8 7 6 6 7 8 10 11 10 10 10 10 9 8 7 8 10 12 12 11 9 10 13 14
10 9 11 13 12 11 11 13 14 14 11 8 7 8 8 7 6 5 6 5 5 6 6 6 6 6 6 6 6 7 7 8 10 11 10 9 9 9 9 8 6 7 9 9 9 11 12 13 12 11 10 9 9 10 10 10 11 11 11 11 12 11 10 8 8 9 10 10 11 11 11 12 14 14
7 7 10 12 13 11 10 11 13 14 13 10 8 9 8 7 6 6 5 5 5 6 6 7 7 7 6 6 7 8 8 10 11 10 9 8 7 7 7 6 5 7 8 8 8 9 9 9 10 11 11 11 11 12 12 11 10 10 11 12 11 11 10 10 9 9 9 9 10 11 13 14 14 14
6 6 9 11 12 12 11 10 11 13 13 11 10 9 9 9 8 7 7 7 7 7 7 8 8 7 6 6 6 5 5 7 9 8 7 6 5 5 6 7 6 7 8 7 7 8 8 8 9 10 9 10 11 11 11 10 10 11 12 12 11 10 10 10 10 10 10 10 11 11 13 14 14 13
Wind_Direction
182 185 186 185 180 172 167 168 168 165 162 163 169 171 164 159 160 158 155 156 154 154 166 180 195 224 204 168 166 168 167 170 169 163 159 157 150 145 145 145 144 141 135 130 122 116 111 106 105 104 104 107 105 102 99 95 95 93 91 90 88 88 84 77 64 52 43 35 30 24 18 12 7 2
173 177 182 185 179 171 169 165 161 163 164 163 168 171 168 164 163 161 156 156 161 166 177 196 208 208 178 173 177 173 173 178 175 168 161 160 158 153 153 151 147 142 134 128 121 116 115 112 114 115 118 120 113 106 99 94 94 92 92 92 87 87 78 58 39 25 19 18 15 10 6 1 358 354
163 170 174 174 173 169 164 159 157 162 158 146 149 159 168 174 174 167 160 163 173 184 186 189 205 204 180 187 188 176 182 188 180 176 168 168 169 164 160 156 151 145 138 135 131 130 131 129 131 132 129 130 122 115 104 94 92 89 90 88 78 64 37 13 3 2 1 2 1 357 355 351 348 345
167 173 167 163 168 164 159 158 154 146 136 138 156 168 174 185 182 171 165 166 171 183 183 180 192 195 175 190 201 193 191 193 187 183 181 182 179 174 170 164 159 156 152 154 154 155 158 151 148 146 139 145 136 121 105 84 76 68 63 54 38 11 358 350 347 348 349 350 350 348 346 344 341 340
174 173 163 160 164 161 159 156 147 134 132 149 166 167 169 184 184 173 171 172 165 166 173 177 188 182 169 190 218 225 200 196 198 191 189 194 190 185 184 177 174 175 174 177 182 184 195 215 233 245 257 257 256 300 32 35 28 25 17 3 352 341 339 340 339 339 340 341 342 341 339 338 336 335
172 161 156 158 159 158 155 150 143 140 147 155 149 148 163 184 195 182 173 172 170 174 176 174 188 189 179 196 225 241 215 209 220 205 194 200 201 197 197 195 190 189 191 194 204 226 248 262 266 263 267 274 282 297 311 328 335 340 344 344 343 338 334 334 333 333 334 334 335 335 334 333 332 331
166 154 152 156 158 149 139 140 150 153 157 161 147 140 157 173 191 187 178 176 178 187 188 181 193 201 186 197 230 248 236 229 239 229 208 204 209 209 207 208 207 206 210 216 235 267 275 272 268 265 269 276 287 296 304 312 317 322 328 333 338 338 335 332 330 329 329 330 330 329 329 329 329 329
160 154 152 156 155 142 135 146 164 159 158 171 158 155 169 168 161 163 174 191 203 197 191 184 197 211 192 191 225 247 244 240 240 237 231 218 218 226 226 222 223 225 230 242 262 280 283 276 267 266 272 279 286 293 298 305 310 315 322 328 332 334 333 330 328 326 325 324 324 325 326 327 327 327
165 161 158 157 150 144 146 160 167 162 165 171 167 173 188 188 188 164 158 183 226 208 192 181 199 222 205 185 214 239 245 245 230 223 239 249 241 238 240 242 251 256 256 263 272 276 280 278 269 265 270 275 279 284 290 296 303 310 316 321 326 328 328 327 324 322 321 320 321 322 323 323 323 323
161 160 162 159 152 152 159 163 165 175 177 150 161 182 191 191 211 198 167 170 193 202 196 184 201 222 220 195 206 231 245 253 243 217 229 251 261 258 244 236 249 262 265 266 269 273 278 280 271 264 265 268 270 274 281 287 292 299 304 310 317 322 323 323 321 319 318 318 319 319 319 319 319 319
138 142 150 154 155 159 166 165 165 178 179 160 162 187 191 182 199 207 187 186 202 210 207 211 212 216 226 222 208 221 240 249 254 237 221 232 248 258 255 238 238 248 254 260 266 272 278 279 272 263 260 262 265 269 275 281 285 290 294 299 306 314 319 320 318 316 316 316 316 315 315 315 315 315
134 144 150 160 166 166 172 176 171 176 188 185 178 186 193 192 192 188 187 206 235 243 235 233 228 222 228 228 219 223 231 231 237 243 232 228 236 245 252 251 246 249 254 260 266 271 275 277 274 268 263 261 263 267 270 275 279 284 287 290 297 307 314 316 315 314 313 313 313 312 312 312 312 312
137 153 158 167 176 173 177 182 176 180 194 193 189 196 200 202 209 202 203 232 238 239 246 245 240 239 236 229 226 228 228 228 234 239 238 242 244 242 244 248 251 255 258 260 263 268 272 272 275 276 268 262 263 267 270 274 277 279 281 283 291 302 309 312 312 311 311 310 310 310 310 310 309 309
144 170 183 184 190 195 198 197 195 198 202 200 200 203 200 204 215 213 216 233 234 240 254 250 247 251 248 240 238 237 235 241 251 248 242 246 249 242 242 247 253 258 260 258 258 262 266 266 270 274 270 266 270 273 275 277 276 276 278 281 288 297 305 309 308 308 308 308 308 308 308 307 307 306
154 187 217 215 211 214 214 212 215 218 217 217 219 218 212 215 228 234 235 240 242 249 259 257 258 260 257 256 253 247 240 240 248 250 247 251 254 249 247 249 253 258 261 259 258 262 266 265 266 269 269 269 274 277 278 277 276 277 279 280 286 293 301 305 305 304 305 305 306 305 305 305 304 304
180 218 260 271 260 248 241 237 237 239 242 239 235 236 235 236 243 251 254 253 250 252 257 263 268 267 265 267 265 258 249 244 246 249 248 250 255 255 252 251 253 258 262 261 258 259 261 261 264 267 269 270 273 275 273 272 277 280 278 280 286 293 301 304 302 302 303 304 304 304 303 303 303 303
235 243 243 253 262 257 242 245 256 266 270 266 257 253 252 252 255 258 260 259 256 257 260 262 264 266 267 267 265 263 259 254 252 252 249 247 249 253 254 253 254 257 261 262 258 252 254 259 262 265 268 270 270 267 264 267 272 273 273 278 286 292 298 301 300 301 303 304 304 303 303 303 302 301
237 240 234 229 223 218 218 223 226 235 254 262 264 267 269 268 269 270 270 271 272 271 270 268 266 265 263 263 262 262 261 259 256 256 255 252 249 250 252 253 255 256 256 259 259 257 260 263 263 264 264 262 259 256 258 263 264 262 265 273 279 285 290 294 297 301 302 303 304 303 302 302 301 302
247 247 249 252 243 236 241 247 244 246 255 259 262 272 279 280 279 276 277 283 283 279 274 271 269 266 264 264 265 264 263 264 264 264 264 263 259 256 256 257 257 257 257 259 263 267 267 266 266 263 256 251 252 255 257 260 262 262 265 269 273 278 283 290 296 301 302 304 304 303 302 302 303 305
261 258 260 268 269 263 261 261 263 265 264 264 274 284 286 284 279 278 281 286 285 281 279 276 272 268 266 267 269 268 267 268 270 270 270 269 268 267 266 265 264 264 264 265 269 272 271 271 271 261 250 249 252 254 256 258 260 262 264 268 273 277 283 291 298 302 304 306 305 304 304 305 307 310
268 271 273 275 274 271 270 273 277 276 269 271 279 284 284 282 282 283 284 285 284 284 282 279 275 269 266 267 270 271 272 273 273 272 271 270 270 269 270 271 272 273 273 272 272 273 273 273 268 257 252 251 246 245 252 256 254 255 260 267 273 279 285 292 298 303 308 309 309 308 309 310 313 316
269 276 282 282 279 280 281 282 282 280 278 278 278 278 280 285 289 290 287 284 285 286 283 279 275 271 269 270 273 275 277 277 275 272 272 273 272 270 269 270 272 273 274 275 274 272 273 273 264 254 253 251 243 242 247 248 247 254 261 266 271 278 284 290 300 309 313 314 315 315 314 315 318 318
270 274 280 282 284 287 288 286 285 284 283 282 281 282 286 289 289 288 287 284 283 282 282 281 279 275 272 274 276 277 277 275 273 271 271 272 272 270 269 268 268 268 270 272 271 268 268 269 265 261 258 252 248 247 247 246 249 257 262 265 270 275 282 294 307 312 313 316 318 315 313 314 317 318
268 271 285 290 285 284 284 285 287 287 284 282 284 287 292 294 291 286 285 285 284 282 281 283 283 280 277 277 280 280 278 276 273 268 265 267 269 269 267 263 261 262 265 269 270 268 267 267 266 264 258 254 252 251 249 246 247 252 259 264 269 275 286 300 307 307 309 314 311 307 308 311 314 319
244 254 271 280 276 273 275 278 282 285 285 285 287 290 295 300 300 297 292 289 286 283 280 279 279 280 281 282 284 286 288 288 284 276 268 265 266 268 269 266 263 263 263 266 269 270 268 266 264 256 247 246 245 238 232 233 237 245 255 263 268 277 288 298 303 304 306 304 297 296 300 304 310 321
248 258 265 270 276 280 283 284 285 288 289 291 293 297 301 305 306 305 304 300 294 289 282 277 275 275 276 275 275 280 286 289 288 286 283 278 275 275 275 273 270 269 268 269 272 271 265 260 255 243 231 229 224 211 206 215 229 238 250 262 268 276 289 299 301 296 293 290 288 290 293 297 306 319
265 273 274 275 281 287 291 291 291 292 294 296 299 301 303 305 305 304 302 301 299 296 290 284 279 277 275 272 270 271 272 272 273 275 276 277 279 280 279 275 271 270 269 269 268 264 257 249 242 233 225 223 219 217 222 231 235 237 245 255 263 277 292 286 266 266 273 275 278 283 289 296 304 311
272 279 282 286 290 294 296 296 295 297 298 301 305 309 312 313 312 309 305 300 298 300 300 297 292 286 280 276 271 268 266 264 265 265 264 266 273 278 280 279 278 275 273 273 272 265 254 247 241 232 225 226 228 229 236 242 242 241 241 242 249 261 265 258 259 266 272 276 279 283 289 296 300 299
285 288 292 296 298 299 303 307 310 315 319 325 334 341 345 344 342 340 338 333 328 324 322 320 315 306 297 286 278 273 272 272 274 272 268 267 273 280 284 284 283 279 275 275 274 266 249 239 237 233 229 233 238 241 243 244 244 246 247 249 255 260 259 261 269 275 279 286 291 290 290 296 300 300
303 307 310 312 315 328 344 356 4 11 14 12 11 10 7 3 2 1 355 346 333 319 314 321 323 313 304 298 292 288 283 281 281 279 275 276 285 294 294 288 282 278 273 271 269 261 248 241 244 247 245 243 244 244 244 246 251 257 259 260 263 266 267 268 271 277 284 293 297 294 294 297 300 303
320 325 332 352 19 25 25 24 24 26 24 17 13 10 6 5 5 356 337 318 308 302 300 306 314 314 313 309 306 303 292 277 265 261 268 285 305 306 297 289 286 283 279 275 271 266 263 264 265 264 259 254 252 252 255 261 265 266 267 266 265 272 277 272 272 280 289 295 295 296 299 301 303 306
4 12 30 53 50 35 25 21 20 17 4 355 356 357 354 353 350 336 318 307 305 306 306 305 306 313 320 318 312 306 289 261 243 246 266 285 291 287 277 271 272 276 271 264 264 266 271 277 279 277 274 272 270 270 272 274 276 281 281 270 257 271 282 280 281 288 292 293 294 295 297 301 308 312
57 62 65 60 47 29 16 5 354 342 334 332 339 352 358 353 338 328 325 323 318 314 312 313 313 316 317 312 306 301 285 260 255 267 279 279 265 246 233 235 244 252 256 259 269 283 288 285 282 284 287 287 285 283 281 279 288 300 291 255 245 270 278 280 285 289 290 293 296 297 300 304 310 310
72 69 63 55 41 23 12 360 349 346 347 348 348 349 354 356 344 334 329 326 323 320 317 318 320 320 314 305 300 299 294 283 277 274 268 256 240 228 225 229 233 239 249 262 277 288 292 293 292 293 294 290 284 283 290 297 307 312 281 256 276 284 278 273 273 276 282 291 298 301 304 306 308 305
69 69 67 61 45 29 27 18 5 352 347 352 352 341 337 349 351 342 333 327 327 327 326 326 326 322 316 306 299 300 299 291 282 270 256 246 239 237 243 246 244 249 260 273 282 288 299 314 317 313 310 305 301 307 323 314 294 269 244 246 270 279 276 273 270 271 277 285 293 299 303 305 306 302
64 75 77 60 26 1 328 319 334 323 310 315 326 327 328 345 353 346 340 336 334 334 337 341 340 335 332 329 323 320 316 304 289 276 265 262 262 263 266 267 268 272 279 290 302 309 320 329 314 298 294 299 303 306 320 315 273 254 247 252 268 281 285 281 276 277 282 288 294 299 302 305 306 304
38 55 65 35 1 329 295 289 293 285 280 286 299 314 324 331 338 340 337 335 337 339 342 345 348 351 358 3 1 353 341 320 299 287 285 285 286 288 290 295 303 307 310 338 360 351 336 329 316 296 288 291 295 298 305 295 234 231 241 259 280 293 297 294 289 288 292 300 307 307 305 305 305 303
32 33 36 4 326 306 298 298 292 278 274 276 290 322 335 321 311 310 316 329 342 349 346 348 356 9 15 15 14 7 355 342 332 327 328 331 331 329 326 325 325 321 311 321 348 306 290 298 313 305 297 297 301 305 305 290 238 234 250 271 288 296 300 303 303 300 303 311 314 309 304 304 306 304
51 51 42 7 344 346 351 355 357 347 334 331 342 354 349 330 316 310 315 334 352 351 340 346 360 9 8 6 6 3 358 351 347 344 342 341 343 343 336 326 319 307 265 230 250 270 270 275 289 300 304 307 309 307 303 297 291 285 282 291 300 300 296 296 304 310 314 315 312 304 298 302 307 307
57 55 42 18 12 17 21 23 27 27 20 16 16 5 343 337 340 338 330 336 356 350 339 345 353 352 352 356 356 351 343 332 326 326 329 334 343 353 350 340 329 315 297 298 304 297 286 282 286 294 303 309 312 314 313 309 303 297 297 314 318 313 301 295 304 316 324 326 323 316 309 310 312 308
56 47 40 33 28 24 22 24 32 37 30 21 16 0 341 346 1 5 346 325 319 316 325 336 337 330 332 335 328 320 315 313 318 329 334 344 9 22 16 9 1 347 340 341 334 321 308 299 298 302 305 304 305 316 332 337 333 330 330 330 329 327 318 306 306 318 329 333 334 331 320 312 314 315
51 43 45 48 42 28 19 19 24 29 31 26 19 4 347 343 355 7 1 344 325 317 327 337 336 328 329 333 337 339 336 341 3 12 9 25 41 28 12 9 4 348 339 340 340 337 336 333 328 323 318 309 310 325 340 341 335 332 327 321 320 322 322 317 316 322 327 331 334 333 323 313 317 324
48 37 40 49 47 36 25 19 16 22 30 32 26 18 7 357 359 20 32 27 11 356 353 351 346 345 347 355 8 18 26 38 40 31 24 35 40 17 355 353 350 336 335 343 348 347 345 344 344 345 346 345 342 339 336 333 330 329 328 324 320 319 320 321 321 319 321 329 335 332 322 314 313 319
52 34 36 43 41 35 30 21 16 20 27 32 33 29 20 13 21 33 28 14 6 3 1 0 1 3 6 14 26 35 42 41 33 22 12 11 11 0 353 350 336 329 337 342 344 342 340 339 342 344 344 345 344 337 332 333 336 334 333 332 330 326 320 317 316 317 320 327 328 322 315 313 314 317
58 40 36 37 34 31 32 29 22 20 22 30 41 43 33 28 34 37 24 11 10 13 12 15 18 15 18 29 31 29 34 32 20 3 343 328 323 339 352 348 343 349 349 337 323 324 327 331 339 339 334 336 340 338 336 337 337 333 333 337 339 335 324 316 316 316 315 317 319 318 317 318 318 320